Time,TemperatureF,DewpointF,PressureIn,WindDirection,WindDirectionDegrees,WindSpeedMPH,WindSpeedGustMPH,Humidity,HourlyPrecipIn,Conditions,Clouds,dailyrainin,SoftwareType,DateUTC
2013-03-21 00:01:00,39.0,33.0,29.97,South,179,2.0,8.0,79,-99.99,,,-99.99,,2013-03-21 07:01:00,
2013-03-21 00:12:00,39.0,33.0,29.97,South,179,2.0,8.0,79,-99.99,,,-99.99,,2013-03-21 07:12:00,
2013-03-21 00:21:00,38.0,32.0,29.98,SSW,193,0.0,8.0,79,-99.99,,,-99.99,,2013-03-21 07:21:00,
2013-03-21 00:32:00,38.0,32.0,29.99,South,191,2.0,5.0,79,-99.99,,,-99.99,,2013-03-21 07:32:00,
2013-03-21 00:41:00,38.0,32.0,29.99,South,191,2.0,5.0,79,-99.99,,,-99.99,,2013-03-21 07:41:00,
2013-03-21 00:52:00,38.0,32.0,29.99,South,181,2.0,7.0,80,-99.99,,,-99.99,,2013-03-21 07:52:00,
2013-03-21 01:01:00,38.0,33.0,29.99,SW,217,0.0,6.0,81,-99.99,,,-99.99,,2013-03-21 08:01:00,
2013-03-21 01:12:00,38.0,33.0,29.99,South,185,1.0,10.0,82,-99.99,,,-99.99,,2013-03-21 08:12:00,
2013-03-21 01:22:00,38.0,33.0,29.99,South,185,1.0,10.0,82,-99.99,,,-99.99,,2013-03-21 08:22:00,
2013-03-21 01:32:00,37.0,32.0,30.01,South,180,0.0,4.0,82,-99.99,,,-99.99,,2013-03-21 08:32:00,
2013-03-21 01:42:00,37.0,32.0,30.01,South,180,0.0,4.0,82,-99.99,,,-99.99,,2013-03-21 08:42:00,
2013-03-21 01:52:00,37.0,32.0,30.01,South,178,1.0,11.0,82,-99.99,,,-99.99,,2013-03-21 08:52:00,
2013-03-21 02:01:00,38.0,33.0,30.02,SSW,201,1.0,6.0,81,-99.99,,,-99.99,,2013-03-21 09:01:00,
2013-03-21 02:11:00,38.0,33.0,30.02,SSW,201,1.0,6.0,81,-99.99,,,-99.99,,2013-03-21 09:11:00,
2013-03-21 02:21:00,37.0,32.0,30.02,South,191,0.0,6.0,81,-99.99,,,-99.99,,2013-03-21 09:21:00,
2013-03-21 02:33:00,37.0,32.0,30.02,SSW,204,2.0,7.0,81,-99.99,,,-99.99,,2013-03-21 09:33:00,
2013-03-21 02:43:00,37.0,32.0,30.02,SSW,204,2.0,7.0,81,-99.99,,,-99.99,,2013-03-21 09:43:00,
2013-03-21 02:53:00,37.0,32.0,30.03,South,185,2.0,5.0,82,-99.99,,,-99.99,,2013-03-21 09:53:00,
2013-03-21 03:02:00,37.0,32.0,30.04,WSW,238,1.0,9.0,83,-99.99,,,-99.99,,2013-03-21 10:02:00,
2013-03-21 03:12:00,37.0,32.0,30.04,WSW,238,1.0,9.0,83,-99.99,,,-99.99,,2013-03-21 10:12:00,
2013-03-21 03:22:00,37.0,32.0,30.04,South,187,5.0,9.0,83,-99.99,,,-99.99,,2013-03-21 10:22:00,
2013-03-21 03:32:00,37.0,32.0,30.04,SSE,168,1.0,12.0,83,-99.99,,,-99.99,,2013-03-21 10:32:00,
2013-03-21 03:42:00,37.0,32.0,30.04,SSE,168,1.0,12.0,83,-99.99,,,-99.99,,2013-03-21 10:42:00,
2013-03-21 03:52:00,37.0,32.0,30.05,SSE,164,0.0,7.0,83,-99.99,,,-99.99,,2013-03-21 10:52:00,
2013-03-21 04:02:00,37.0,33.0,30.05,SSW,207,0.0,3.0,84,-99.99,,,-99.99,,2013-03-21 11:02:00,
2013-03-21 04:12:00,37.0,33.0,30.05,SSW,207,0.0,3.0,84,-99.99,,,-99.99,,2013-03-21 11:12:00,
2013-03-21 04:22:00,37.0,33.0,30.06,South,184,0.0,2.0,85,-99.99,,,-99.99,,2013-03-21 11:22:00,
2013-03-21 04:32:00,37.0,33.0,30.06,South,183,0.0,3.0,86,-99.99,,,-99.99,,2013-03-21 11:32:00,
2013-03-21 04:42:00,37.0,33.0,30.06,South,183,0.0,3.0,86,-99.99,,,-99.99,,2013-03-21 11:42:00,
2013-03-21 04:52:00,37.0,33.0,30.06,SSE,164,1.0,3.0,85,-99.99,,,-99.99,,2013-03-21 11:52:00,
2013-03-21 05:01:00,37.0,33.0,30.06,SW,230,0.0,2.0,84,-99.99,,,-99.99,,2013-03-21 12:01:00,
2013-03-21 05:11:00,37.0,33.0,30.06,SW,230,0.0,2.0,84,-99.99,,,-99.99,,2013-03-21 12:11:00,
2013-03-21 05:21:00,37.0,33.0,30.06,SW,236,0.0,4.0,84,-99.99,,,-99.99,,2013-03-21 12:21:00,
2013-03-21 05:32:00,37.0,32.0,30.07,SW,230,3.0,5.0,83,-99.99,,,-99.99,,2013-03-21 12:32:00,
2013-03-21 05:41:00,37.0,32.0,30.07,SW,230,3.0,5.0,83,-99.99,,,-99.99,,2013-03-21 12:41:00,
2013-03-21 05:52:00,38.0,33.0,30.08,SSW,208,3.0,7.0,83,-99.99,,,-99.99,,2013-03-21 12:52:00,
2013-03-21 06:02:00,38.0,33.0,30.08,South,175,1.0,3.0,83,-99.99,,,-99.99,,2013-03-21 13:02:00,
2013-03-21 06:12:00,38.0,33.0,30.08,South,175,1.0,3.0,83,-99.99,,,-99.99,,2013-03-21 13:12:00,
2013-03-21 06:22:00,38.0,33.0,30.08,SSE,156,1.0,3.0,83,-99.99,,,-99.99,,2013-03-21 13:22:00,
2013-03-21 06:31:00,38.0,33.0,30.09,SSE,157,3.0,7.0,83,-99.99,,,-99.99,,2013-03-21 13:31:00,
2013-03-21 06:42:00,38.0,33.0,30.09,SSE,157,3.0,7.0,83,-99.99,,,-99.99,,2013-03-21 13:42:00,
2013-03-21 06:52:00,38.0,33.0,30.09,SSE,163,1.0,5.0,83,-99.99,,,-99.99,,2013-03-21 13:52:00,
2013-03-21 07:01:00,38.0,33.0,30.09,SSE,164,2.0,5.0,82,-99.99,,,-99.99,,2013-03-21 14:01:00,
2013-03-21 07:11:00,38.0,33.0,30.09,South,186,0.0,6.0,82,-99.99,,,-99.99,,2013-03-21 14:11:00,
2013-03-21 07:21:00,38.0,33.0,30.09,South,186,0.0,6.0,82,-99.99,,,-99.99,,2013-03-21 14:21:00,
2013-03-21 07:32:00,38.0,33.0,30.09,SSE,166,1.0,4.0,82,-99.99,,,-99.99,,2013-03-21 14:32:00,
2013-03-21 07:42:00,38.0,33.0,30.09,SSE,166,1.0,4.0,82,-99.99,,,-99.99,,2013-03-21 14:42:00,
2013-03-21 07:52:00,38.0,33.0,30.09,West,275,1.0,3.0,83,-99.99,,,-99.99,,2013-03-21 14:52:00,
2013-03-21 08:02:00,38.0,33.0,30.10,WSW,246,0.0,6.0,83,-99.99,,,-99.99,,2013-03-21 15:02:00,
2013-03-21 08:12:00,38.0,33.0,30.10,South,181,1.0,4.0,82,-99.99,,,-99.99,,2013-03-21 15:12:00,
2013-03-21 08:21:00,38.0,33.0,30.10,South,181,1.0,4.0,82,-99.99,,,-99.99,,2013-03-21 15:21:00,
2013-03-21 08:32:00,38.0,33.0,30.10,SW,233,0.0,6.0,82,-99.99,,,-99.99,,2013-03-21 15:32:00,
2013-03-21 08:42:00,38.0,33.0,30.10,SW,233,0.0,6.0,82,-99.99,,,-99.99,,2013-03-21 15:42:00,
2013-03-21 08:52:00,38.0,33.0,30.10,SW,233,0.0,6.0,82,-99.99,,,-99.99,,2013-03-21 15:52:00,
2013-03-21 09:03:00,39.0,34.0,30.11,South,182,1.0,6.0,81,-99.99,,,-99.99,,2013-03-21 16:03:00,
2013-03-21 09:12:00,39.0,34.0,30.11,South,182,1.0,6.0,81,-99.99,,,-99.99,,2013-03-21 16:12:00,
2013-03-21 09:22:00,39.0,33.0,30.12,SSW,207,0.0,7.0,80,-99.99,,,-99.99,,2013-03-21 16:22:00,
2013-03-21 09:32:00,39.0,33.0,30.12,SSE,163,0.0,5.0,80,-99.99,,,-99.99,,2013-03-21 16:32:00,
2013-03-21 09:42:00,39.0,33.0,30.12,SSE,163,0.0,5.0,80,-99.99,,,-99.99,,2013-03-21 16:42:00,
2013-03-21 09:53:00,40.0,34.0,30.12,SSE,166,0.0,2.0,78,-99.99,,,-99.99,,2013-03-21 16:53:00,
2013-03-21 10:01:00,40.0,33.0,30.13,SSW,197,1.0,5.0,76,-99.99,,,-99.99,,2013-03-21 17:01:00,
2013-03-21 10:11:00,40.0,33.0,30.13,SSW,197,1.0,5.0,76,-99.99,,,-99.99,,2013-03-21 17:11:00,
2013-03-21 10:22:00,40.0,33.0,30.13,SW,225,0.0,7.0,76,-99.99,,,-99.99,,2013-03-21 17:22:00,
2013-03-21 10:32:00,41.0,34.0,30.13,South,184,4.0,10.0,75,-99.99,,,-99.99,,2013-03-21 17:32:00,
2013-03-21 10:52:00,41.0,33.0,30.14,South,173,1.0,5.0,74,-99.99,,,-99.99,,2013-03-21 17:52:00,
2013-03-21 11:02:00,42.0,34.0,30.14,SSE,159,0.0,4.0,74,-99.99,,,-99.99,,2013-03-21 18:02:00,
2013-03-21 11:21:00,42.0,33.0,30.14,WSW,246,4.0,9.0,70,-99.99,,,-99.99,,2013-03-21 18:21:00,
2013-03-21 11:32:00,42.0,33.0,30.15,WSW,247,3.0,6.0,70,-99.99,,,-99.99,,2013-03-21 18:32:00,
2013-03-21 11:42:00,42.0,33.0,30.15,WSW,247,3.0,6.0,70,-99.99,,,-99.99,,2013-03-21 18:42:00,
2013-03-21 11:52:00,43.0,33.0,30.15,SSE,163,2.0,5.0,68,-99.99,,,-99.99,,2013-03-21 18:52:00,
2013-03-21 12:01:00,46.0,35.0,30.15,SSE,153,1.0,10.0,65,-99.99,,,-99.99,,2013-03-21 19:01:00,
2013-03-21 12:11:00,46.0,35.0,30.15,SSE,153,1.0,10.0,65,-99.99,,,-99.99,,2013-03-21 19:11:00,
2013-03-21 12:21:00,45.0,34.0,30.15,SSW,204,1.0,7.0,66,-99.99,,,-99.99,,2013-03-21 19:21:00,
2013-03-21 12:31:00,45.0,33.0,30.15,West,269,4.0,9.0,62,-99.99,,,-99.99,,2013-03-21 19:31:00,
2013-03-21 12:42:00,45.0,33.0,30.15,West,269,4.0,9.0,62,-99.99,,,-99.99,,2013-03-21 19:42:00,
2013-03-21 12:52:00,45.0,32.0,30.14,SSW,197,1.0,11.0,60,-99.99,,,-99.99,,2013-03-21 19:52:00,
2013-03-21 13:02:00,46.0,32.0,30.14,SSW,196,1.0,10.0,59,-99.99,,,-99.99,,2013-03-21 20:02:00,
2013-03-21 13:11:00,46.0,32.0,30.14,SSW,196,1.0,10.0,59,-99.99,,,-99.99,,2013-03-21 20:11:00,
2013-03-21 13:22:00,46.0,34.0,30.14,SSE,153,3.0,13.0,62,-99.99,,,-99.99,,2013-03-21 20:22:00,
2013-03-21 13:32:00,47.0,33.0,30.13,SE,124,5.0,8.0,59,-99.99,,,-99.99,,2013-03-21 20:32:00,
2013-03-21 13:41:00,47.0,33.0,30.13,SE,124,5.0,8.0,59,-99.99,,,-99.99,,2013-03-21 20:41:00,
2013-03-21 13:53:00,47.0,34.0,30.13,SSE,157,2.0,11.0,60,-99.99,,,-99.99,,2013-03-21 20:53:00,
2013-03-21 14:01:00,48.0,33.0,30.13,SSE,156,3.0,7.0,56,-99.99,,,-99.99,,2013-03-21 21:01:00,
2013-03-21 14:12:00,48.0,33.0,30.13,SSE,156,3.0,7.0,56,-99.99,,,-99.99,,2013-03-21 21:12:00,
2013-03-21 14:21:00,47.0,34.0,30.13,WSW,245,2.0,7.0,60,-99.99,,,-99.99,,2013-03-21 21:21:00,
2013-03-21 14:32:00,44.0,33.0,30.13,NW,325,2.0,8.0,66,-99.99,,,-99.99,,2013-03-21 21:32:00,
2013-03-21 14:42:00,44.0,33.0,30.13,NW,325,2.0,8.0,66,-99.99,,,-99.99,,2013-03-21 21:42:00,
2013-03-21 14:53:00,42.0,37.0,30.13,NE,38,1.0,3.0,82,-99.99,,,-99.99,,2013-03-21 21:53:00,
2013-03-21 15:02:00,42.0,36.0,30.12,NE,49,0.0,3.0,80,-99.99,,,-99.99,,2013-03-21 22:02:00,
2013-03-21 15:12:00,42.0,36.0,30.12,NE,49,0.0,3.0,80,-99.99,,,-99.99,,2013-03-21 22:12:00,
2013-03-21 15:22:00,42.0,36.0,30.12,NE,49,1.0,3.0,79,-99.99,,,-99.99,,2013-03-21 22:22:00,
2013-03-21 15:33:00,44.0,36.0,30.12,North,9,0.0,1.0,74,-99.99,,,-99.99,,2013-03-21 22:33:00,
2013-03-21 15:42:00,44.0,36.0,30.12,North,9,0.0,1.0,74,-99.99,,,-99.99,,2013-03-21 22:42:00,
2013-03-21 15:52:00,44.0,36.0,30.12,ESE,117,0.0,3.0,74,-99.99,,,-99.99,,2013-03-21 22:52:00,
2013-03-21 16:02:00,43.0,37.0,30.12,ESE,114,1.0,3.0,79,-99.99,,,-99.99,,2013-03-21 23:02:00,
2013-03-21 16:12:00,43.0,37.0,30.12,ESE,114,1.0,3.0,79,-99.99,,,-99.99,,2013-03-21 23:12:00,
2013-03-21 16:21:00,40.0,36.0,30.13,NE,49,3.0,10.0,85,-99.99,,,-99.99,,2013-03-21 23:21:00,
2013-03-21 16:32:00,41.0,37.0,30.13,ENE,57,4.0,10.0,86,-99.99,,,-99.99,,2013-03-21 23:32:00,
2013-03-21 16:42:00,41.0,37.0,30.13,ENE,57,4.0,10.0,86,-99.99,,,-99.99,,2013-03-21 23:42:00,
2013-03-21 16:53:00,40.0,36.0,30.13,ENE,75,2.0,9.0,86,-99.99,,,-99.99,,2013-03-21 23:53:00,
2013-03-21 17:01:00,39.0,35.0,30.13,NE,52,1.0,7.0,87,-99.99,,,-99.99,,2013-03-22 00:01:00,
2013-03-21 17:22:00,39.0,36.0,30.13,NE,55,1.0,5.0,88,-99.99,,,-99.99,,2013-03-22 00:22:00,
2013-03-21 17:31:00,40.0,37.0,30.13,ENE,64,0.0,3.0,89,-99.99,,,-99.99,,2013-03-22 00:31:00,
2013-03-21 17:42:00,40.0,37.0,30.13,ENE,64,0.0,3.0,89,-99.99,,,-99.99,,2013-03-22 00:42:00,
2013-03-21 17:52:00,39.0,36.0,30.13,NE,38,0.0,3.0,88,-99.99,,,-99.99,,2013-03-22 00:52:00,
2013-03-21 18:02:00,39.0,36.0,30.13,NE,38,0.0,2.0,88,-99.99,,,-99.99,,2013-03-22 01:02:00,
2013-03-21 18:11:00,39.0,36.0,30.13,NE,38,0.0,2.0,88,-99.99,,,-99.99,,2013-03-22 01:11:00,
2013-03-21 18:21:00,39.0,36.0,30.14,West,266,3.0,5.0,89,-99.99,,,-99.99,,2013-03-22 01:21:00,
2013-03-21 18:31:00,38.0,34.0,30.13,NW,317,0.0,6.0,87,-99.99,,,-99.99,,2013-03-22 01:31:00,
2013-03-21 18:42:00,38.0,34.0,30.13,NW,317,0.0,6.0,87,-99.99,,,-99.99,,2013-03-22 01:42:00,
2013-03-21 18:53:00,38.0,34.0,30.13,West,259,0.0,4.0,87,-99.99,,,-99.99,,2013-03-22 01:53:00,
2013-03-21 19:02:00,38.0,35.0,30.14,ESE,107,1.0,3.0,88,-99.99,,,-99.99,,2013-03-22 02:02:00,
2013-03-21 19:11:00,38.0,35.0,30.14,ESE,107,1.0,3.0,88,-99.99,,,-99.99,,2013-03-22 02:11:00,
2013-03-21 19:21:00,38.0,35.0,30.12,ESE,107,0.0,2.0,90,-99.99,,,-99.99,,2013-03-22 02:21:00,
2013-03-21 19:32:00,38.0,36.0,30.13,ESE,107,0.0,1.0,91,-99.99,,,-99.99,,2013-03-22 02:32:00,
2013-03-21 19:42:00,38.0,36.0,30.13,ESE,107,0.0,1.0,91,-99.99,,,-99.99,,2013-03-22 02:42:00,
2013-03-21 19:51:00,38.0,36.0,30.13,ESE,107,0.0,0.0,91,-99.99,,,-99.99,,2013-03-22 02:51:00,
2013-03-21 20:02:00,38.0,36.0,30.13,ESE,107,0.0,0.0,91,-99.99,,,-99.99,,2013-03-22 03:02:00,
2013-03-21 20:11:00,38.0,36.0,30.13,ESE,107,0.0,0.0,91,-99.99,,,-99.99,,2013-03-22 03:11:00,
2013-03-21 20:21:00,38.0,36.0,30.14,ESE,107,0.0,0.0,91,-99.99,,,-99.99,,2013-03-22 03:21:00,
2013-03-21 20:32:00,37.0,35.0,30.15,ESE,107,0.0,0.0,91,-99.99,,,-99.99,,2013-03-22 03:32:00,
2013-03-21 20:42:00,37.0,35.0,30.15,ESE,107,0.0,0.0,91,-99.99,,,-99.99,,2013-03-22 03:42:00,
2013-03-21 20:53:00,37.0,35.0,30.15,ESE,107,0.0,0.0,92,-99.99,,,-99.99,,2013-03-22 03:53:00,
2013-03-21 21:02:00,37.0,35.0,30.16,ESE,113,0.0,3.0,92,-99.99,,,-99.99,,2013-03-22 04:02:00,
2013-03-21 21:12:00,37.0,35.0,30.16,ESE,113,0.0,3.0,92,-99.99,,,-99.99,,2013-03-22 04:12:00,
2013-03-21 21:22:00,37.0,35.0,30.17,SSE,162,4.0,10.0,91,-99.99,,,-99.99,,2013-03-22 04:22:00,
2013-03-21 21:32:00,37.0,34.0,30.17,SSE,161,4.0,10.0,90,-99.99,,,-99.99,,2013-03-22 04:32:00,
2013-03-21 21:42:00,37.0,34.0,30.17,SSE,161,4.0,10.0,90,-99.99,,,-99.99,,2013-03-22 04:42:00,
2013-03-21 21:52:00,37.0,35.0,30.17,SSE,166,7.0,11.0,91,-99.99,,,-99.99,,2013-03-22 04:52:00,
2013-03-21 22:02:00,37.0,35.0,30.18,SSE,158,4.0,7.0,91,-99.99,,,-99.99,,2013-03-22 05:02:00,
2013-03-21 22:12:00,37.0,35.0,30.18,SSE,158,4.0,7.0,91,-99.99,,,-99.99,,2013-03-22 05:12:00,
2013-03-21 22:22:00,37.0,35.0,30.18,SSE,158,4.0,10.0,92,-99.99,,,-99.99,,2013-03-22 05:22:00,
2013-03-21 22:32:00,36.0,34.0,30.18,SSE,165,4.0,10.0,92,-99.99,,,-99.99,,2013-03-22 05:32:00,
2013-03-21 22:42:00,36.0,34.0,30.18,SSE,165,4.0,10.0,92,-99.99,,,-99.99,,2013-03-22 05:42:00,
2013-03-21 22:52:00,36.0,34.0,30.18,SSE,162,2.0,9.0,92,-99.99,,,-99.99,,2013-03-22 05:52:00,
2013-03-21 23:02:00,36.0,34.0,30.18,SSE,166,4.0,11.0,92,-99.99,,,-99.99,,2013-03-22 06:02:00,
2013-03-21 23:12:00,36.0,34.0,30.18,SSE,166,4.0,11.0,92,-99.99,,,-99.99,,2013-03-22 06:12:00,
2013-03-21 23:21:00,36.0,34.0,30.18,SSE,157,0.0,6.0,92,-99.99,,,-99.99,,2013-03-22 06:21:00,
2013-03-21 23:31:00,36.0,34.0,30.19,SSE,150,2.0,6.0,92,-99.99,,,-99.99,,2013-03-22 06:31:00,
2013-03-21 23:41:00,36.0,34.0,30.19,SSE,150,2.0,6.0,92,-99.99,,,-99.99,,2013-03-22 06:41:00,
2013-03-21 23:52:00,36.0,34.0,30.19,SSE,165,1.0,7.0,92,-99.99,,,-99.99,,2013-03-22 06:52:00,